Погода в Кирово-Чепецке

Россия / Кировская область     58°33′23″N   50°02′38″E
темп.,
°C
ветер,
м/с
пор.,
м/с
влажн.,
%
обл.,
%
осадки,
мм/ч
давл.,
гПа
погр.,
м
14 июня, пн
пн1400:00+15ююв3109514 0.1 1013189
03:00+14ююв27975 0.2 1013146
06:00+17ю389394 0.8 1014300
09:00+22ююз4763100 1.0 10131015
12:00+23ююз586067 0.9 10131776
15:00+22юз47765 3.6 1013990
18:00+21зюз367950 1.3 1013428
21:00+17юз2494100 1.8 101369
15 июня, вт
вт1500:00+15зюз25952 0.0 101392
03:00+14з22965 0.0 101435
06:00+18з118373 0.0 1014169
09:00+23зсз12565 0.0 1014865
12:00+26з234335 0.1 10132160
15:00+21ююз2466100 0.1 101373
18:00+23ююз246625 0.0 1012154
21:00+18ююз35846 0.0 101271
16 июня, ср
ср1600:00+16ю2288100 0.0 101144
03:00+16ю229635 2.0 101162
06:00+19ю268977 0.1 1010245
09:00+23ююз3765100 0.1 1010623
12:00+27ю474387 0.0 10081551
15:00+26ю345491 0.0 1006985
18:00+17сз2596100 10.3 1007156
21:00+15сз41096100 11.6 1007565
17 июня, чт
чт1700:00+13сз410934 0.1 1010544
03:00+10сз3119474 0.1 1012347
06:00+13ссз49780 0.0 1014447
09:00+18ссз58420 0.0 10151811
12:00+20ссз4637100 0.0 10152832
15:00+20ссз363863 0.0 10162491
18:00+14сз7117997 0.4 1018565
21:00+11зсз259147 0.6 101997
18 июня, пт
пт1800:00+9сз39955 0.0 1020229
03:00+8сз28971 0.0 1022192
06:00+12сз367716 0.0 1023308
09:00+17ссз464726 0.0 10231350
12:00+20ссз573448 0.0 10231905
15:00+21ссз463634 0.0 10232217
18:00+19сз1258100 0.0 102367
21:00+14юз357282 0.0 102369